STARLINK-31584 (59862 NORAD) Tracking and Keplerian Element Data

This shows tracking and keplerian element data for the satellite.

Feedback or suggestion? Click here.




ElementValue
Catalog59862
NameSTARLINK-31584
Epoch Orbit279
Epoch Day160.16667824
Epoch Year2024
RAAN328.0328
Inclination43.0023
Eccentricity0.000207
Argument of Perigee278.7794
Mean Anonmoly189.2485
Mean Motion15.73561248
Decay Rate-0.01571873
L11 59862U 24098E 24160.16667824 -.01571873 00000+0 -12229-1 0 9996
L22 59862 43.0023 328.0328 0002070 278.7794 189.2485 15.73561248 2790



Live tracking and technical data element details for STARLINK-31584 (NORAD 59862). STARLINK-31584 can be tracked NOW for your location showing map with azimuth and elevation plus other details from your city location.







IsCatalogInMostPopularTable: catalog: 59862, numindb: 11
Update: records affected: 1



GetName: 59862 STARLINK-31584

Hit Count: updated at: Wed, 24 Jul 2024 23:58:05 GMT